Regional Weather Roundup
Issued by NWS

Home | Current Version | Previous Version | Graphics & Text | Print | Product List | Glossary On
Versions: 1 2 3 4 5 6 7 8 9 10 11 12 13 14 15 16 17 18 19 20 21 22 23 24 25 26 27 28 29 30 31 32 33 34 35 36 37 38 39 40 41 42 43 44 45 46 47 48 49 50
000
ASUS43 KFSD 270610
RWRSD

WEATHER ROUNDUP FOR SOUTH DAKOTA
NATIONAL WEATHER SERVICE SIOUX FALLS SD
100 AM CDT FRI MAY 27 2016

NOTE: "FAIR" INDICATES FEW OR NO CLOUDS BELOW 12,000 FEET WITH NO
SIGNIFICANT WEATHER AND/OR OBSTRUCTIONS TO VISIBILITY.


SDZ001>005-009-010-012>017-270700-
NORTHWEST AND NORTH CENTRAL SOUTH DAKOTA

CITY           SKY/WX    TMP DP  RH WIND       PRES   REMARKS
BUFFALO          N/A     48  42  80 CALM      29.81F
FAITH            N/A     50  40  68 N6        29.86R
MOBRIDGE       CLEAR     54  47  77 NW6       29.79S
$$

SDZ012>016-024>037-041>051-057-063-072>074-270700-
SOUTHWEST AND SOUTH CENTRAL SOUTH DAKOTA

CITY           SKY/WX    TMP DP  RH WIND       PRES   REMARKS
RAPID CTY ARPT CLEAR     50  43  77 N10       29.87S
PIERRE         PTCLDY    55  51  86 N3        29.79F
CUSTER         PTCLDY    46  39  76 N5        29.94S
ELLSWORTH AFB  CLEAR     55  42  61 N12       29.88R
PHILIP         CLEAR     53  47  79 CALM      29.82S
PINE RIDGE     MOCLDY    49  45  86 NE6       29.84F
WINNER         CLOUDY    60  52  74 SE7       29.84S
$$

SDZ004>011-016>023-039-040-270700-
NORTHEAST SOUTH DAKOTA

CITY           SKY/WX    TMP DP  RH WIND       PRES   REMARKS
ABERDEEN       PTCLDY    60  55  83 S9        29.80F
WATERTOWN      CLOUDY    62  52  69 N3        29.84S
BROOKINGS      CLOUDY    63  54  72 E3        29.81F
SISSETON         N/A     60  55  83 NW5       29.80F
$$

SDZ017-020-022-023-036>040-048>070-270700-
SOUTHEAST SOUTH DAKOTA

CITY           SKY/WX    TMP DP  RH WIND       PRES   REMARKS
SIOUX FALLS    LGT RAIN  58  53  84 CALM      29.81S
HURON          CLOUDY    61  56  83 E8        29.80S
CHAMBERLAIN    LGT RAIN  65  61  87 N6        29.82R
MITCHELL       CLOUDY    62  58  86 E6        29.79F
YANKTON        CLOUDY    63  55  77 S9        29.79S
$$

ABBREVIATIONS USED IN REMARKS
   TC - TEMPERATURE IN CELSIUS
  WCI - WIND CHILL INDEX
   HX - HEAT INDEX
  VSB - VISIBILITY





USA.gov is the U.S. government's official web portal to all federal, state and local government web resources and services.